Location: Dehesa de la Cepeda
(40.6574°N, 4.3013°W)
Time: 02:55:01
(UTC+00:00)

Courier 1B - Pass Details

Date: 03 August 2021
Orbit: 963 x 1209 km, 28.3° (Epoch: 17 September)

Event Time Altitude Azimuth Distance (km) Brightness Sun altitude
Rises 18:42:44 0° 236° (SW) 4,087 11.4 7.6°
Reaches altitude 10° 18:45:59 10° 225° (SW) 3,135 10.6 7.0°
Maximum altitude 18:52:29 29° 169° (S) 2,043 9.0 5.8°
Drops below altitude 10° 18:58:55 10° 113° (ESE) 3,108 9.5 4.7°
Sets 19:02:08 0° 103° (ESE) 4,047 10.0 4.1°
